DECAYED

CZ-6A DEB, 61495 (Decayed)

Orbit data source: Space-Track

CZ-6A DEB, 61495 was space debris in LEO originally from a launch on Tue, 06 Aug 2024 UTC launched from the Taiyaun Space Center, China (TSC). Debris objects in space refer to the collection of defunct objects orbiting the Earth. Examples of debris include non-operational satellites, rocket bodies, and fragments generated from explosions, collisions, or faulty payload assembly.

Loading next visibility...
Identifier
61495, 2024-140ABD
Orbit
Decayed
Country
Flag of CNCN / PRC
Related business
Manufacturer
SAST
Mission
Decayed spacecraft
Bus & Motor
Unknown
Mass
Unknown
Launch date (UTC)
2024-08-06 (2 years ago)
Launch vehicle
Unknown
Launch site
Taiyaun Space Center, China (TSC)
Object type
Payload
Rocket body
Debris
Shape & HBR
Unknown shape, 0.1 m
Radar Cross Section
Medium (>0.1 m² and <1 m²)

Expand to show TLE details & history
Last TLE update: 1 year ago

TLE from 1 year ago
0 CZ-6A DEB
1 61495U 24140ABD 25093.38010436  .04295506  00000-0  43235-1 0  9999
2 61495  89.0060 322.6295 0011833 267.0171  92.9743 15.61049842 34415
Epoch: 2025-04-03T09:07Z
TLE epoch observation values (Epoch: 2025-04-03T09:07:21.016Z)
Latitude
-0°
Longitude
-6.16184°
Altitude
388.3 km
Speed
7.677 km/s
True Right ascension
21h 30m 31s
True Declination
0° 00' 00"
Sunlit
Object was in daylight at epoch
Visualization orbit readout
Latitude
Unknown
Longitude
Unknown
Altitude
Unknown
Speed
Unknown
Apparent Right ascension
Unknown
Apparent Declination
Unknown
Sunlit
N/A
Visualization observer readout
Local Sidereal Time
07:20:18
Azimuth
Unknown
Elevation
Unknown
Doppler factor
Unknown
Orbital elements
Apogee altitude
389.374 km
Perigee altitude
373.377 km
Semi-major axis
6,759.512 km
Eccentricity
0.00118
Inclination
89.006°
RAAN
322.6295°
Arg. of periapsis
267.0171°
True anomaly
93.1097°
Mean anomaly
92.9743°
Eccentric anomaly
93.042°
Mean motion
3.90544 °/min
Orbital period
92.18 mins
BSTAR
0.043235
Loading maneuver chart data...
Computing Atmospheric mass density...
Loading historical data...
Loading historical data...
Loading historical data...
Loading historical data...
Loading historical data...
Loading historical data...
Loading historical data...

Documentation

Showing up to 5 results
|